Погода в Слободках

Россия / Ивановская область     56°55′30″N   42°20′10″E
темп.,
°C
ветер,
м/с
пор.,
м/с
влажн.,
%
обл.,
%
осадки,
мм/ч
давл.,
гПа
погр.,
м
24 июля, сб
сб2400:00+10зсз37945 0.0 1006143
03:00+9сз3797100 0.0 1008135
06:00+11ссз2491100 0.1 1009179
09:00+14с2380100 1.0 1010308
12:00+17с346060 1.4 10111230
15:00+19ссз3542100 1.8 10121817
18:00+17св344536 0.0 1014634
21:00+12ю226480 0.0 101611
25 июля, вс
вс2500:00+14юз1156100 0.0 101711
03:00+10зюз337512 0.0 101923
06:00+12юз226113 0.0 102078
09:00+19з333912 0.0 1020818
12:00+22з553183 0.0 10202448
15:00+23зюз362771 0.0 10202720
18:00+21з2340100 0.0 102076
21:00+17з354795 0.0 102198
26 июля, пн
пн2600:00+16з355087 0.0 102290
03:00+15зюз3457100 0.0 102384
06:00+15юз355986 0.0 1023150
09:00+18зюз3453100 0.0 1023321
12:00+21з454395 0.0 1023789
15:00+24зсз4533100 0.0 10222657
18:00+24з363679 0.0 10211867
21:00+17зюз355723 0.0 102163
27 июля, вт
вт2700:00+15зсз36659 0.0 102192
03:00+14зсз337341 0.0 102146
06:00+16сз267045 0.0 1022173
09:00+22ссз345235 0.1 1021633
12:00+26сз243616 0.0 10212065
15:00+22сз4655100 0.3 1020172
18:00+19всв228045 1.6 102064
21:00+16зюз339052 1.7 102043
28 июля, ср
ср2800:00+15юз11905 0.0 102011
03:00+15з229162 0.0 101917
06:00+16юз24855 0.0 1018109
09:00+23зюз45547 0.0 1017516
12:00+29зюз673377 0.0 10142676
15:00+26з494198 0.0 1013416
18:00+23юз49665 0.5 1012340
21:00+19юз47705 0.5 101192